Location: Newark
(51.2625°N, 13.3939°E)
Time: 08:12:09
(UTC+00:00)

Transit 2A Rocket - Pass Details

Date: 24 January 2021
Orbit: 594 x 909 km, 66.7° (Epoch: 24 February)

Event Time Altitude Azimuth Distance (km) Brightness Sun altitude
Rises 17:53:19 0° 323° (NW) 3,002 8.5 -20.1°
Reaches altitude 10° 17:56:04 10° 337° (NNW) 2,040 7.4 -20.5°
Enters shadow 17:59:02 23° 16° (NNE) 1,329 6.0 -21.0°
